sat.trackr.live / text

‹ back to catalog

QIANFAN-41

NORAD 62242 · 2024-232F

PAYLOAD ACTIVE UNKNOWN

§ Identity

Operator
Country
PRC
Launch date
2024-12-05
Launch site
TAISC
Launch vehicle
Mass (kg)
RCS (m²)

External: N2YO · Heavens-Above · Gunter

§ Orbital elements

Epoch: 2026-09-22T20:49:08.664096Z

Period
106.59 min
Inclination
89.0165°
Eccentricity
0.0015842
Mean motion
13.51030766 rev/d
Perigee alt
1,056.7 km
Apogee alt
1,080.3 km
Semi-major
7,446.6 km
B*
1.3137e-4
RAAN
12.6852°
Arg perigee
92.4455°
Mean anomaly
267.8510°
Rev number
13,761

§ Raw data

QIANFAN-411 62242U 24232F   26265.86746139  .00000097  00000+0  13137-3 0  99972 62242  89.0165  12.6852 0015842  92.4455 267.8510 13.51030766137619

JSON: /api/v1/satellites/62242 · /tle

For live sub-satellite position, see the globe view (requires WebGL).

§ Visibility from observer

Set your observer location to see the next 7 days of passes ≥ 10°. The values pass through the URL so the page stays shareable.

No JS? Fill the form by hand. The geolocation button needs JavaScript.